星链-33819 (STARLINK-33819)

导读 | 豆包AI

STARLINK-33819是美国SpaceX公司星链(Starlink)星座的成员卫星,于2025年4月7日由美国发射升空,属于低轨通信卫星。它采用平板设计与氪工质霍尔推进器,搭载Ku/Ka波段通信载荷,具备自主避撞能力,旨在为全球提供宽带互联网服务,设计使用寿命约5-7年,退役后会主动离轨再入大气层烧毁。

基本信息
目录编号:
63494
目录名称:
STARLINK-33819
国际标识:
2025-071B
轨道中心:
EARTH
卫星名称:
星链-33819
卫星全名:
星链-33819 (STARLINK-33819)
卫星状态:
在轨 (已飞行387 天)
发射日期:
2025-04-07 UTC
国别 :
美国 (US)
星等 :
--
轨道信息
数据来源 国际轨道数据
星历时间: 2026-04-29T10:29:11+0800
16小时前
查看轨道信息
半长轴: 6817.814km
偏心率: 0.0001443
轨道倾角: 53.160°
近地点辐角 43.106°
升交点赤经 267.521°
平近点角 317.006°
近地点: 438.693km
远地点: 440.661km
周期: 93.374分钟
每日圈数: 15.4218
详细信息
固有亮度:
5
最大亮度:
2.5
卫星平台:
Starlink V1.0
覆盖范围:
全球
运营商:
太空探索技术公司
运营商所在国:
美国
制造商(研发单位):
太空探索技术公司
制造商所在国:
美国
使用方式:
暂无
卫星简介
Starlink 计划是 SpaceX 推出的全球卫星互联网项目,通过发射低轨道卫星,为全球尤其是偏远地区提供高速、低延迟的互联网服务。自 2019 年起,Starlink 已部署数千颗卫星,旨在缩小全球数字鸿沟,推动互联网普及。该项目还为军事、航空等行业提供通信支持,带来广泛经济效益。
2D轨道图
3D轨道图
轨道高度分析图
轨道倾角分析图
轨道综合分析图
查看轨道综合分析图